Time,TemperatureF,DewpointF,PressureIn,WindDirection,WindDirectionDegrees,WindSpeedMPH,WindSpeedGustMPH,Humidity,HourlyPrecipIn,Conditions,Clouds,dailyrainin,SoftwareType,DateUTC
2013-02-07 00:00:00,22.7,18.0,29.94,SSW,203,0.0,0.0,82,0.00,,,0.00,Wunderground v.1.15,2013-02-07 06:00:00,
2013-02-07 00:06:00,22.9,18.2,29.94,SSW,203,0.0,0.0,82,0.00,,,0.00,Wunderground v.1.15,2013-02-07 06:06:00,
2013-02-07 00:15:00,22.9,18.2,29.94,SW,217,0.0,0.0,82,0.00,,,0.00,Wunderground v.1.15,2013-02-07 06:15:00,
2013-02-07 00:20:00,22.9,18.2,29.94,SW,217,0.0,0.0,82,0.00,,,0.00,Wunderground v.1.15,2013-02-07 06:20:00,
2013-02-07 00:25:00,22.9,18.2,29.94,East,84,0.0,0.0,82,0.00,,,0.00,Wunderground v.1.15,2013-02-07 06:25:00,
2013-02-07 00:35:00,23.0,18.6,29.94,East,84,0.0,0.0,83,0.00,,,0.00,Wunderground v.1.15,2013-02-07 06:35:00,
2013-02-07 00:40:00,23.2,18.8,29.94,East,84,0.0,0.0,83,0.00,,,0.00,Wunderground v.1.15,2013-02-07 06:40:00,
2013-02-07 00:45:00,23.5,19.1,29.95,ENE,60,0.0,0.0,83,0.00,,,0.00,Wunderground v.1.15,2013-02-07 06:45:00,
2013-02-07 00:55:00,23.8,19.7,29.95,NE,51,0.0,0.0,84,0.00,,,0.00,Wunderground v.1.15,2013-02-07 06:55:00,
2013-02-07 01:00:00,24.1,20.0,29.95,NE,41,0.0,0.0,84,0.00,,,0.00,Wunderground v.1.15,2013-02-07 07:00:00,
2013-02-07 01:06:00,24.4,20.5,29.95,West,271,0.0,0.0,85,0.00,,,0.00,Wunderground v.1.15,2013-02-07 07:06:00,
2013-02-07 01:15:00,24.8,20.9,29.95,North,354,0.0,0.0,85,0.00,,,0.00,Wunderground v.1.15,2013-02-07 07:15:00,
2013-02-07 01:20:00,25.0,21.1,29.95,NE,53,0.0,0.0,85,0.00,,,0.00,Wunderground v.1.15,2013-02-07 07:20:00,
2013-02-07 01:25:00,25.1,21.2,29.95,NNW,346,0.0,0.0,85,0.00,,,0.00,Wunderground v.1.15,2013-02-07 07:25:00,
2013-02-07 01:30:00,25.3,21.4,29.94,NNW,346,0.0,0.0,85,0.00,,,0.00,Wunderground v.1.15,2013-02-07 07:30:00,
2013-02-07 01:35:00,25.4,21.5,29.94,NNW,346,0.0,0.0,85,0.00,,,0.00,Wunderground v.1.15,2013-02-07 07:35:00,
2013-02-07 01:40:00,25.4,21.5,29.94,NNW,346,0.0,0.0,85,0.00,,,0.00,Wunderground v.1.15,2013-02-07 07:40:00,
2013-02-07 01:50:00,25.6,21.7,29.95,WNW,297,0.0,0.0,85,0.00,,,0.00,Wunderground v.1.15,2013-02-07 07:50:00,
2013-02-07 01:55:00,25.7,21.8,29.95,WNW,297,0.0,0.0,85,0.00,,,0.00,Wunderground v.1.15,2013-02-07 07:55:00,
2013-02-07 02:00:00,25.7,21.8,29.94,WNW,297,0.0,0.0,85,0.00,,,0.00,Wunderground v.1.15,2013-02-07 08:00:00,
2013-02-07 02:06:00,25.8,21.9,29.94,WNW,297,0.0,0.0,85,0.00,,,0.00,Wunderground v.1.15,2013-02-07 08:06:00,
2013-02-07 02:15:00,26.0,22.1,29.96,WSW,240,0.0,0.0,85,0.00,,,0.00,Wunderground v.1.15,2013-02-07 08:15:00,
2013-02-07 02:20:00,26.0,22.1,29.96,WSW,252,0.0,0.0,85,0.00,,,0.00,Wunderground v.1.15,2013-02-07 08:20:00,
2013-02-07 02:25:00,26.1,22.2,29.96,WSW,252,0.0,0.0,85,0.00,,,0.00,Wunderground v.1.15,2013-02-07 08:25:00,
2013-02-07 02:30:00,26.1,22.2,29.96,SSW,211,0.0,0.0,85,0.00,,,0.00,Wunderground v.1.15,2013-02-07 08:30:00,
2013-02-07 02:36:00,26.1,22.2,29.96,SSW,211,0.0,0.0,85,0.00,,,0.00,Wunderground v.1.15,2013-02-07 08:36:00,
2013-02-07 02:45:00,26.1,22.2,29.96,SSW,203,0.0,0.0,85,0.00,,,0.00,Wunderground v.1.15,2013-02-07 08:45:00,
2013-02-07 02:50:00,26.1,22.2,29.96,SW,224,0.0,0.0,85,0.00,,,0.00,Wunderground v.1.15,2013-02-07 08:50:00,
2013-02-07 03:00:00,26.1,22.2,29.96,SW,214,0.0,0.0,85,0.00,,,0.00,Wunderground v.1.15,2013-02-07 09:00:00,
2013-02-07 03:06:00,26.0,21.8,29.96,SW,214,0.0,0.0,84,0.00,,,0.00,Wunderground v.1.15,2013-02-07 09:06:00,
2013-02-07 03:15:00,26.0,21.8,29.96,SSW,200,0.0,0.0,84,0.00,,,0.00,Wunderground v.1.15,2013-02-07 09:15:00,
2013-02-07 03:20:00,26.0,21.8,29.96,SW,233,0.0,0.0,84,0.00,,,0.00,Wunderground v.1.15,2013-02-07 09:20:00,
2013-02-07 03:30:00,26.0,21.8,29.96,South,181,0.0,0.0,84,0.00,,,0.00,Wunderground v.1.15,2013-02-07 09:30:00,
2013-02-07 03:35:00,26.0,21.8,29.96,WSW,254,0.0,0.0,84,0.00,,,0.00,Wunderground v.1.15,2013-02-07 09:35:00,
2013-02-07 03:45:00,26.0,21.8,29.96,ENE,75,0.0,0.0,84,0.00,,,0.00,Wunderground v.1.15,2013-02-07 09:45:00,
2013-02-07 03:50:00,26.0,21.8,29.96,SW,230,0.0,0.0,84,0.00,,,0.00,Wunderground v.1.15,2013-02-07 09:50:00,
2013-02-07 03:55:00,25.8,21.6,29.96,SW,219,0.0,0.0,84,0.00,,,0.00,Wunderground v.1.15,2013-02-07 09:55:00,
2013-02-07 04:00:00,25.8,21.6,29.96,West,263,0.0,0.0,84,0.00,,,0.00,Wunderground v.1.15,2013-02-07 10:00:00,
2013-02-07 04:06:00,25.8,21.6,29.96,West,263,0.0,0.0,84,0.00,,,0.00,Wunderground v.1.15,2013-02-07 10:06:00,
2013-02-07 04:15:00,25.8,21.6,29.96,West,262,0.0,0.0,84,0.00,,,0.00,Wunderground v.1.15,2013-02-07 10:15:00,
2013-02-07 04:20:00,25.8,21.6,29.96,West,262,0.0,0.0,84,0.00,,,0.00,Wunderground v.1.15,2013-02-07 10:20:00,
2013-02-07 04:30:00,25.8,21.6,29.96,WNW,299,0.0,0.0,84,0.00,,,0.00,Wunderground v.1.15,2013-02-07 10:30:00,
2013-02-07 04:36:00,25.8,21.6,29.96,WSW,242,0.0,0.0,84,0.00,,,0.00,Wunderground v.1.15,2013-02-07 10:36:00,
2013-02-07 04:45:00,25.6,21.4,29.97,WSW,242,0.0,0.0,84,0.00,,,0.00,Wunderground v.1.15,2013-02-07 10:45:00,
2013-02-07 04:55:00,25.4,21.2,29.97,WSW,242,0.0,0.0,84,0.00,,,0.00,Wunderground v.1.15,2013-02-07 10:55:00,
2013-02-07 05:00:00,25.3,21.1,29.97,WSW,242,0.0,0.0,84,0.00,,,0.00,Wunderground v.1.15,2013-02-07 11:00:00,
2013-02-07 05:06:00,25.3,21.1,29.97,WSW,242,0.0,0.0,84,0.00,,,0.00,Wunderground v.1.15,2013-02-07 11:06:00,
2013-02-07 05:16:00,25.1,20.9,29.98,WSW,238,0.0,0.0,84,0.00,,,0.00,Wunderground v.1.15,2013-02-07 11:16:00,
2013-02-07 05:26:00,25.1,20.9,29.98,WSW,238,0.0,0.0,84,0.00,,,0.00,Wunderground v.1.15,2013-02-07 11:26:00,
2013-02-07 05:35:00,25.0,20.8,29.98,WSW,238,0.0,0.0,84,0.00,,,0.00,Wunderground v.1.15,2013-02-07 11:35:00,
2013-02-07 05:40:00,25.0,20.8,29.98,WSW,238,0.0,0.0,84,0.00,,,0.00,Wunderground v.1.15,2013-02-07 11:40:00,
2013-02-07 05:45:00,25.0,20.8,29.98,West,270,0.0,0.0,84,0.00,,,0.00,Wunderground v.1.15,2013-02-07 11:45:00,
2013-02-07 05:50:00,25.0,20.8,29.98,SW,219,0.0,0.0,84,0.00,,,0.00,Wunderground v.1.15,2013-02-07 11:50:00,
2013-02-07 05:55:00,25.0,21.1,29.98,SW,227,0.0,0.0,85,0.00,,,0.00,Wunderground v.1.15,2013-02-07 11:55:00,
2013-02-07 06:01:00,25.0,21.1,29.98,SSW,203,0.0,0.0,85,0.00,,,0.00,Wunderground v.1.15,2013-02-07 12:01:00,
2013-02-07 06:06:00,25.0,21.1,29.98,SW,228,0.0,0.0,85,0.00,,,0.00,Wunderground v.1.15,2013-02-07 12:06:00,
2013-02-07 06:15:00,25.0,21.1,29.98,SW,228,0.0,0.0,85,0.00,,,0.00,Wunderground v.1.15,2013-02-07 12:15:00,
2013-02-07 06:20:00,25.0,21.1,29.98,SW,228,0.0,0.0,85,0.00,,,0.00,Wunderground v.1.15,2013-02-07 12:20:00,
2013-02-07 06:25:00,25.0,21.1,29.98,SW,228,0.0,0.0,85,0.00,,,0.00,Wunderground v.1.15,2013-02-07 12:25:00,
2013-02-07 06:30:00,25.0,21.4,29.98,West,271,0.0,0.0,86,0.00,,,0.00,Wunderground v.1.15,2013-02-07 12:30:00,
2013-02-07 06:40:00,25.0,21.4,29.98,West,260,0.0,0.0,86,0.00,,,0.00,Wunderground v.1.15,2013-02-07 12:40:00,
2013-02-07 06:50:00,24.8,21.2,29.98,WSW,254,0.0,0.0,86,0.00,,,0.00,Wunderground v.1.15,2013-02-07 12:50:00,
2013-02-07 06:56:00,24.8,21.2,29.98,West,261,0.0,0.0,86,0.00,,,0.00,Wunderground v.1.15,2013-02-07 12:56:00,
2013-02-07 07:06:00,24.7,21.4,29.98,WSW,251,0.0,0.0,87,0.00,,,0.00,Wunderground v.1.15,2013-02-07 13:06:00,
2013-02-07 07:15:00,24.7,21.4,29.98,West,259,0.0,0.0,87,0.00,,,0.00,Wunderground v.1.15,2013-02-07 13:15:00,
2013-02-07 07:20:00,24.7,21.4,29.98,WSW,248,0.0,0.0,87,0.00,,,0.00,Wunderground v.1.15,2013-02-07 13:20:00,
2013-02-07 07:25:00,24.7,21.4,29.98,WSW,251,0.0,0.0,87,0.00,,,0.00,Wunderground v.1.15,2013-02-07 13:25:00,
2013-02-07 07:30:00,24.7,21.4,29.99,West,266,0.0,0.0,87,0.00,,,0.00,Wunderground v.1.15,2013-02-07 13:30:00,
2013-02-07 07:36:00,24.7,21.4,29.99,SSW,198,0.0,0.0,87,0.00,,,0.00,Wunderground v.1.15,2013-02-07 13:36:00,
2013-02-07 07:45:00,24.7,21.7,30.00,SW,220,0.0,0.0,88,0.00,,,0.00,Wunderground v.1.15,2013-02-07 13:45:00,
2013-02-07 07:55:00,24.7,21.7,30.00,WSW,243,0.0,0.0,88,0.00,,,0.00,Wunderground v.1.15,2013-02-07 13:55:00,
2013-02-07 08:01:00,24.8,21.8,30.01,WSW,243,0.0,0.0,88,0.00,,,0.00,Wunderground v.1.15,2013-02-07 14:01:00,
2013-02-07 08:06:00,24.8,21.8,30.01,WSW,243,0.0,0.0,88,0.00,,,0.00,Wunderground v.1.15,2013-02-07 14:06:00,
2013-02-07 08:15:00,25.0,21.9,30.02,SW,217,0.0,0.0,88,0.00,,,0.00,Wunderground v.1.15,2013-02-07 14:15:00,
2013-02-07 08:20:00,25.0,21.9,30.02,SSW,211,0.0,0.0,88,0.00,,,0.00,Wunderground v.1.15,2013-02-07 14:20:00,
2013-02-07 08:26:00,25.0,21.9,30.02,SSW,211,0.0,0.0,88,0.00,,,0.00,Wunderground v.1.15,2013-02-07 14:26:00,
2013-02-07 08:36:00,25.0,21.9,30.03,WSW,255,0.0,0.0,88,0.00,,,0.00,Wunderground v.1.15,2013-02-07 14:36:00,
2013-02-07 08:45:00,24.8,21.8,30.04,WSW,255,0.0,0.0,88,0.00,,,0.00,Wunderground v.1.15,2013-02-07 14:45:00,
2013-02-07 08:50:00,24.8,21.8,30.04,NE,54,0.0,0.0,88,0.00,,,0.00,Wunderground v.1.15,2013-02-07 14:50:00,
2013-02-07 08:55:00,24.8,21.8,30.04,West,262,0.0,0.0,88,0.00,,,0.00,Wunderground v.1.15,2013-02-07 14:55:00,
2013-02-07 09:01:00,24.8,21.8,30.04,WSW,256,0.0,0.0,88,0.00,,,0.00,Wunderground v.1.15,2013-02-07 15:01:00,
2013-02-07 09:06:00,24.8,21.8,30.04,WSW,255,0.0,0.0,88,0.00,,,0.00,Wunderground v.1.15,2013-02-07 15:06:00,
2013-02-07 09:15:00,25.0,21.9,30.04,SW,222,0.0,0.0,88,0.00,,,0.00,Wunderground v.1.15,2013-02-07 15:15:00,
2013-02-07 09:20:00,24.8,21.8,30.04,SW,214,0.0,0.0,88,0.00,,,0.00,Wunderground v.1.15,2013-02-07 15:20:00,
2013-02-07 09:26:00,24.8,21.8,30.04,SW,231,0.0,0.0,88,0.00,,,0.00,Wunderground v.1.15,2013-02-07 15:26:00,
2013-02-07 09:35:00,24.8,21.8,30.04,West,278,0.0,0.0,88,0.00,,,0.00,Wunderground v.1.15,2013-02-07 15:35:00,
2013-02-07 09:40:00,24.8,21.8,30.04,WNW,296,0.0,0.0,88,0.00,,,0.00,Wunderground v.1.15,2013-02-07 15:40:00,
2013-02-07 09:45:00,24.8,21.8,30.05,West,259,0.0,0.0,88,0.00,,,0.00,Wunderground v.1.15,2013-02-07 15:45:00,
2013-02-07 09:55:00,24.8,21.8,30.05,SW,224,0.0,0.0,88,0.00,,,0.00,Wunderground v.1.15,2013-02-07 15:55:00,
2013-02-07 10:01:00,25.0,21.9,30.05,SW,224,0.0,0.0,88,0.00,,,0.00,Wunderground v.1.15,2013-02-07 16:01:00,
2013-02-07 10:06:00,25.0,21.9,30.05,SW,224,0.0,0.0,88,0.00,,,0.00,Wunderground v.1.15,2013-02-07 16:06:00,
2013-02-07 10:15:00,25.1,22.0,30.06,SW,223,0.0,0.0,88,0.00,,,0.00,Wunderground v.1.15,2013-02-07 16:15:00,
2013-02-07 10:20:00,25.1,22.0,30.06,WSW,240,0.0,0.0,88,0.00,,,0.00,Wunderground v.1.15,2013-02-07 16:20:00,
2013-02-07 10:26:00,25.1,22.0,30.06,WSW,249,0.0,0.0,88,0.00,,,0.00,Wunderground v.1.15,2013-02-07 16:26:00,
2013-02-07 10:35:00,25.1,22.0,30.06,SW,220,0.0,0.0,88,0.00,,,0.00,Wunderground v.1.15,2013-02-07 16:35:00,
2013-02-07 10:40:00,25.1,21.8,30.06,SSW,213,0.0,0.0,87,0.00,,,0.00,Wunderground v.1.15,2013-02-07 16:40:00,
2013-02-07 10:45:00,25.1,21.8,30.06,NE,46,0.0,0.0,87,0.00,,,0.00,Wunderground v.1.15,2013-02-07 16:45:00,
2013-02-07 10:50:00,25.3,22.0,30.06,WNW,295,0.0,0.0,87,0.00,,,0.00,Wunderground v.1.15,2013-02-07 16:50:00,
2013-02-07 10:55:00,25.3,22.0,30.06,West,270,0.0,0.0,87,0.00,,,0.00,Wunderground v.1.15,2013-02-07 16:55:00,
2013-02-07 11:00:00,25.4,22.1,30.06,SW,220,0.0,0.0,87,0.00,,,0.00,Wunderground v.1.15,2013-02-07 17:00:00,
2013-02-07 11:06:00,25.7,22.4,30.06,SW,220,0.0,0.0,87,0.00,,,0.00,Wunderground v.1.15,2013-02-07 17:06:00,
2013-02-07 11:15:00,26.0,22.7,30.06,SW,220,0.0,0.0,87,0.00,,,0.00,Wunderground v.1.15,2013-02-07 17:15:00,
2013-02-07 11:25:00,26.1,22.5,30.06,SW,220,0.0,0.0,86,0.00,,,0.00,Wunderground v.1.15,2013-02-07 17:25:00,
2013-02-07 11:30:00,26.1,22.5,30.06,SW,220,0.0,0.0,86,0.00,,,0.00,Wunderground v.1.15,2013-02-07 17:30:00,
2013-02-07 11:40:00,26.1,22.2,30.06,South,175,0.0,0.0,85,0.00,,,0.00,Wunderground v.1.15,2013-02-07 17:40:00,
2013-02-07 11:45:00,26.0,22.1,30.07,SSE,150,0.0,0.0,85,0.00,,,0.00,Wunderground v.1.15,2013-02-07 17:45:00,
2013-02-07 11:50:00,26.0,21.8,30.07,West,260,0.0,0.0,84,0.00,,,0.00,Wunderground v.1.15,2013-02-07 17:50:00,
2013-02-07 11:55:00,25.8,21.6,30.07,SSE,155,0.0,0.0,84,0.00,,,0.00,Wunderground v.1.15,2013-02-07 17:55:00,
2013-02-07 12:01:00,25.8,21.6,30.07,SW,231,0.0,0.0,84,0.00,,,0.00,Wunderground v.1.15,2013-02-07 18:01:00,
2013-02-07 12:06:00,25.8,21.6,30.07,West,266,0.0,0.0,84,0.00,,,0.00,Wunderground v.1.15,2013-02-07 18:06:00,
2013-02-07 12:15:00,26.0,21.5,30.07,WSW,245,0.0,0.0,83,0.00,,,0.00,Wunderground v.1.15,2013-02-07 18:15:00,
2013-02-07 12:20:00,26.1,21.6,30.07,WSW,244,0.0,0.0,83,0.00,,,0.00,Wunderground v.1.15,2013-02-07 18:20:00,
2013-02-07 12:25:00,26.1,21.6,30.07,SSW,212,0.0,0.0,83,0.00,,,0.00,Wunderground v.1.15,2013-02-07 18:25:00,
2013-02-07 12:30:00,26.3,21.8,30.06,SW,223,0.0,0.0,83,0.00,,,0.00,Wunderground v.1.15,2013-02-07 18:30:00,
2013-02-07 12:35:00,26.3,21.8,30.06,WNW,293,0.0,0.0,83,0.00,,,0.00,Wunderground v.1.15,2013-02-07 18:35:00,
2013-02-07 12:40:00,26.3,21.6,30.06,West,269,0.0,0.0,82,0.00,,,0.00,Wunderground v.1.15,2013-02-07 18:40:00,
2013-02-07 12:45:00,26.3,21.8,30.06,WSW,237,0.0,0.0,83,0.00,,,0.00,Wunderground v.1.15,2013-02-07 18:45:00,
2013-02-07 12:50:00,26.3,21.8,30.06,SSE,167,0.0,0.0,83,0.00,,,0.00,Wunderground v.1.15,2013-02-07 18:50:00,
2013-02-07 12:56:00,26.3,21.8,30.06,East,84,0.0,0.0,83,0.00,,,0.00,Wunderground v.1.15,2013-02-07 18:56:00,
2013-02-07 13:06:00,26.3,21.8,30.06,East,99,0.0,0.0,83,0.00,,,0.00,Wunderground v.1.15,2013-02-07 19:06:00,
2013-02-07 13:16:00,26.1,21.6,30.06,WSW,240,0.0,0.0,83,0.00,,,0.00,Wunderground v.1.15,2013-02-07 19:16:00,
2013-02-07 13:25:00,26.3,22.1,30.06,South,191,0.0,0.0,84,0.00,,,0.00,Wunderground v.1.15,2013-02-07 19:25:00,
2013-02-07 13:31:00,26.4,22.2,30.05,SSW,209,0.0,0.0,84,0.00,,,0.00,Wunderground v.1.15,2013-02-07 19:31:00,
2013-02-07 13:40:00,26.4,22.2,30.05,WSW,245,0.0,0.0,84,0.00,,,0.00,Wunderground v.1.15,2013-02-07 19:40:00,
2013-02-07 13:50:00,26.4,22.2,30.04,SW,224,0.0,0.0,84,0.00,,,0.00,Wunderground v.1.15,2013-02-07 19:50:00,
2013-02-07 13:55:00,26.6,22.4,30.04,SSW,196,0.0,0.0,84,0.00,,,0.00,Wunderground v.1.15,2013-02-07 19:55:00,
2013-02-07 14:00:00,26.4,22.2,30.04,West,277,0.0,0.0,84,0.00,,,0.00,Wunderground v.1.15,2013-02-07 20:00:00,
2013-02-07 14:06:00,26.6,22.4,30.04,SSW,206,0.0,0.0,84,0.00,,,0.00,Wunderground v.1.15,2013-02-07 20:06:00,
2013-02-07 14:16:00,26.6,22.1,30.04,SW,230,0.0,0.0,83,0.00,,,0.00,Wunderground v.1.15,2013-02-07 20:16:00,
2013-02-07 14:25:00,26.6,22.1,30.04,West,277,0.0,0.0,83,0.00,,,0.00,Wunderground v.1.15,2013-02-07 20:25:00,
2013-02-07 14:30:00,26.6,22.1,30.04,SW,227,0.0,0.0,83,0.00,,,0.00,Wunderground v.1.15,2013-02-07 20:30:00,
2013-02-07 14:35:00,26.7,22.2,30.04,SW,230,0.0,0.0,83,0.00,,,0.00,Wunderground v.1.15,2013-02-07 20:35:00,
2013-02-07 14:40:00,26.7,21.9,30.04,South,186,0.0,0.0,82,0.00,,,0.00,Wunderground v.1.15,2013-02-07 20:40:00,
2013-02-07 14:45:00,26.9,22.1,30.05,WSW,247,0.0,0.0,82,0.00,,,0.00,Wunderground v.1.15,2013-02-07 20:45:00,
2013-02-07 14:55:00,26.7,21.7,30.05,SW,217,0.0,0.0,81,0.00,,,0.00,Wunderground v.1.15,2013-02-07 20:55:00,
2013-02-07 15:00:00,26.7,21.4,30.05,SSW,192,0.0,0.0,80,0.00,,,0.00,Wunderground v.1.15,2013-02-07 21:00:00,
2013-02-07 15:06:00,26.7,21.4,30.05,SW,233,0.0,0.0,80,0.00,,,0.00,Wunderground v.1.15,2013-02-07 21:06:00,
2013-02-07 15:15:00,26.9,21.3,30.06,SW,226,0.0,0.0,79,0.00,,,0.00,Wunderground v.1.15,2013-02-07 21:15:00,
2013-02-07 15:21:00,26.9,21.3,30.06,ENE,77,0.0,0.0,79,0.00,,,0.00,Wunderground v.1.15,2013-02-07 21:21:00,
2013-02-07 15:30:00,27.0,21.1,30.06,SW,215,0.0,0.0,78,0.00,,,0.00,Wunderground v.1.15,2013-02-07 21:30:00,
2013-02-07 15:35:00,27.2,20.9,30.06,WSW,256,0.0,0.0,77,0.00,,,0.00,Wunderground v.1.15,2013-02-07 21:35:00,
2013-02-07 15:41:00,27.2,20.9,30.06,SW,233,0.0,0.0,77,0.00,,,0.00,Wunderground v.1.15,2013-02-07 21:41:00,
2013-02-07 15:46:00,27.2,20.9,30.07,WSW,257,0.0,0.0,77,0.00,,,0.00,Wunderground v.1.15,2013-02-07 21:46:00,
2013-02-07 15:55:00,27.3,20.7,30.07,West,271,0.0,0.0,76,0.00,,,0.00,Wunderground v.1.15,2013-02-07 21:55:00,
2013-02-07 16:00:00,27.3,20.7,30.07,ENE,70,0.0,0.0,76,0.00,,,0.00,Wunderground v.1.15,2013-02-07 22:00:00,
2013-02-07 16:06:00,27.5,20.9,30.07,WNW,299,0.0,0.0,76,0.00,,,0.00,Wunderground v.1.15,2013-02-07 22:06:00,
2013-02-07 16:15:00,27.3,20.4,30.08,WSW,243,0.0,0.0,75,0.00,,,0.00,Wunderground v.1.15,2013-02-07 22:15:00,
2013-02-07 16:20:00,27.3,20.4,30.08,West,264,0.0,0.0,75,0.00,,,0.00,Wunderground v.1.15,2013-02-07 22:20:00,
2013-02-07 16:26:00,27.3,20.4,30.08,WSW,256,0.0,0.0,75,0.00,,,0.00,Wunderground v.1.15,2013-02-07 22:26:00,
2013-02-07 16:35:00,27.5,20.6,30.09,WSW,238,0.0,0.0,75,0.00,,,0.00,Wunderground v.1.15,2013-02-07 22:35:00,
2013-02-07 16:40:00,27.3,20.1,30.09,West,281,0.0,0.0,74,0.00,,,0.00,Wunderground v.1.15,2013-02-07 22:40:00,
2013-02-07 16:45:00,27.3,20.1,30.09,SW,226,0.0,0.0,74,0.00,,,0.00,Wunderground v.1.15,2013-02-07 22:45:00,
2013-02-07 16:50:00,27.3,20.1,30.09,WSW,245,0.0,0.0,74,0.00,,,0.00,Wunderground v.1.15,2013-02-07 22:50:00,
2013-02-07 16:55:00,27.3,20.1,30.09,SW,232,0.0,0.0,74,0.00,,,0.00,Wunderground v.1.15,2013-02-07 22:55:00,
2013-02-07 17:01:00,27.3,20.1,30.10,SSE,167,0.0,0.0,74,0.00,,,0.00,Wunderground v.1.15,2013-02-07 23:01:00,
2013-02-07 17:06:00,27.2,20.0,30.10,WSW,255,0.0,0.0,74,0.00,,,0.00,Wunderground v.1.15,2013-02-07 23:06:00,
2013-02-07 17:15:00,27.2,20.0,30.10,SW,233,0.0,0.0,74,0.00,,,0.00,Wunderground v.1.15,2013-02-07 23:15:00,
2013-02-07 17:25:00,27.2,20.0,30.10,SSW,195,0.0,0.0,74,0.00,,,0.00,Wunderground v.1.15,2013-02-07 23:25:00,
2013-02-07 17:35:00,27.2,20.0,30.11,SSW,200,0.0,0.0,74,0.00,,,0.00,Wunderground v.1.15,2013-02-07 23:35:00,
2013-02-07 17:40:00,27.2,20.0,30.11,SW,221,0.0,0.0,74,0.00,,,0.00,Wunderground v.1.15,2013-02-07 23:40:00,
2013-02-07 17:45:00,27.2,20.3,30.12,South,188,0.0,0.0,75,0.00,,,0.00,Wunderground v.1.15,2013-02-07 23:45:00,
2013-02-07 17:51:00,27.2,20.3,30.12,ESE,105,0.0,0.0,75,0.00,,,0.00,Wunderground v.1.15,2013-02-07 23:51:00,
2013-02-07 17:56:00,27.2,20.3,30.12,SSW,203,0.0,0.0,75,0.00,,,0.00,Wunderground v.1.15,2013-02-07 23:56:00,
2013-02-07 18:06:00,27.2,20.0,30.12,SW,229,0.0,0.0,74,0.00,,,0.00,Wunderground v.1.15,2013-02-08 00:06:00,
2013-02-07 18:16:00,27.0,19.8,30.13,WSW,239,0.0,0.0,74,0.00,,,0.00,Wunderground v.1.15,2013-02-08 00:16:00,
2013-02-07 18:25:00,27.0,19.8,30.13,SW,236,0.0,0.0,74,0.00,,,0.00,Wunderground v.1.15,2013-02-08 00:25:00,
2013-02-07 18:30:00,27.0,19.8,30.13,WSW,243,0.0,0.0,74,0.00,,,0.00,Wunderground v.1.15,2013-02-08 00:30:00,
2013-02-07 18:36:00,27.0,19.8,30.13,SW,234,0.0,0.0,74,0.00,,,0.00,Wunderground v.1.15,2013-02-08 00:36:00,
2013-02-07 18:41:00,27.0,19.8,30.13,WSW,238,0.0,0.0,74,0.00,,,0.00,Wunderground v.1.15,2013-02-08 00:41:00,
2013-02-07 18:50:00,26.9,19.7,30.13,SSW,205,0.0,0.0,74,0.00,,,0.00,Wunderground v.1.15,2013-02-08 00:50:00,
2013-02-07 18:55:00,26.9,19.7,30.13,West,273,0.0,0.0,74,0.00,,,0.00,Wunderground v.1.15,2013-02-08 00:55:00,
2013-02-07 19:00:00,26.9,19.7,30.15,WSW,245,0.0,0.0,74,0.00,,,0.00,Wunderground v.1.15,2013-02-08 01:00:00,
2013-02-07 19:06:00,26.9,19.7,30.15,SSW,202,0.0,0.0,74,0.00,,,0.00,Wunderground v.1.15,2013-02-08 01:06:00,
2013-02-07 19:15:00,26.9,19.7,30.15,WSW,253,0.0,0.0,74,0.00,,,0.00,Wunderground v.1.15,2013-02-08 01:15:00,
2013-02-07 19:20:00,26.9,19.7,30.15,West,269,0.0,0.0,74,0.00,,,0.00,Wunderground v.1.15,2013-02-08 01:20:00,
2013-02-07 19:25:00,26.9,20.0,30.15,SW,233,0.0,0.0,75,0.00,,,0.00,Wunderground v.1.15,2013-02-08 01:25:00,
2013-02-07 19:30:00,26.9,20.0,30.15,WSW,243,0.0,0.0,75,0.00,,,0.00,Wunderground v.1.15,2013-02-08 01:30:00,
2013-02-07 19:35:00,26.9,20.0,30.15,WSW,243,0.0,0.0,75,0.00,,,0.00,Wunderground v.1.15,2013-02-08 01:35:00,
2013-02-07 19:41:00,26.9,20.0,30.15,South,187,0.0,0.0,75,0.00,,,0.00,Wunderground v.1.15,2013-02-08 01:41:00,
2013-02-07 19:50:00,26.9,20.0,30.16,SW,236,0.0,0.0,75,0.00,,,0.00,Wunderground v.1.15,2013-02-08 01:50:00,
2013-02-07 19:55:00,26.9,20.0,30.16,SW,236,0.0,0.0,75,0.00,,,0.00,Wunderground v.1.15,2013-02-08 01:55:00,
2013-02-07 20:00:00,26.9,20.0,30.16,SW,236,0.0,0.0,75,0.00,,,0.00,Wunderground v.1.15,2013-02-08 02:00:00,
2013-02-07 20:06:00,26.9,20.0,30.16,SW,229,0.0,0.0,75,0.00,,,0.00,Wunderground v.1.15,2013-02-08 02:06:00,
2013-02-07 20:15:00,26.9,20.0,30.16,WSW,247,0.0,0.0,75,0.00,,,0.00,Wunderground v.1.15,2013-02-08 02:15:00,
2013-02-07 20:20:00,26.9,20.0,30.16,West,274,0.0,0.0,75,0.00,,,0.00,Wunderground v.1.15,2013-02-08 02:20:00,
2013-02-07 20:25:00,26.9,20.0,30.16,East,89,0.0,0.0,75,0.00,,,0.00,Wunderground v.1.15,2013-02-08 02:25:00,
2013-02-07 20:30:00,26.7,19.8,30.16,West,274,0.0,0.0,75,0.00,,,0.00,Wunderground v.1.15,2013-02-08 02:30:00,
2013-02-07 20:36:00,26.7,19.8,30.16,SSE,150,0.0,0.0,75,0.00,,,0.00,Wunderground v.1.15,2013-02-08 02:36:00,
2013-02-07 20:45:00,26.7,19.8,30.16,WNW,290,0.0,0.0,75,0.00,,,0.00,Wunderground v.1.15,2013-02-08 02:45:00,
2013-02-07 20:50:00,26.7,19.8,30.16,SSW,210,0.0,0.0,75,0.00,,,0.00,Wunderground v.1.15,2013-02-08 02:50:00,
2013-02-07 20:55:00,26.7,19.8,30.16,SSW,210,0.0,0.0,75,0.00,,,0.00,Wunderground v.1.15,2013-02-08 02:55:00,
2013-02-07 21:01:00,26.7,20.1,30.17,SSW,213,0.0,0.0,76,0.00,,,0.00,Wunderground v.1.15,2013-02-08 03:01:00,
2013-02-07 21:06:00,26.7,20.1,30.17,SSW,213,0.0,0.0,76,0.00,,,0.00,Wunderground v.1.15,2013-02-08 03:06:00,
2013-02-07 21:15:00,26.7,20.1,30.17,East,82,0.0,0.0,76,0.00,,,0.00,Wunderground v.1.15,2013-02-08 03:15:00,
2013-02-07 21:21:00,26.7,20.1,30.17,SW,231,0.0,0.0,76,0.00,,,0.00,Wunderground v.1.15,2013-02-08 03:21:00,
2013-02-07 21:31:00,26.7,20.5,30.17,ESE,103,0.0,0.0,77,0.00,,,0.00,Wunderground v.1.15,2013-02-08 03:31:00,
2013-02-07 21:36:00,26.6,20.4,30.17,SSE,160,0.0,0.0,77,0.00,,,0.00,Wunderground v.1.15,2013-02-08 03:36:00,
2013-02-07 21:45:00,26.6,20.7,30.18,SE,131,0.0,0.0,78,0.00,,,0.00,Wunderground v.1.15,2013-02-08 03:45:00,
2013-02-07 21:50:00,26.6,20.7,30.18,SE,134,0.0,0.0,78,0.00,,,0.00,Wunderground v.1.15,2013-02-08 03:50:00,
2013-02-07 21:55:00,26.4,20.5,30.18,NE,51,0.0,0.0,78,0.00,,,0.00,Wunderground v.1.15,2013-02-08 03:55:00,
2013-02-07 22:06:00,26.4,20.5,30.18,South,178,0.0,0.0,78,0.00,,,0.00,Wunderground v.1.15,2013-02-08 04:06:00,
2013-02-07 22:16:00,26.3,20.4,30.19,NE,37,0.0,0.0,78,0.00,,,0.00,Wunderground v.1.15,2013-02-08 04:16:00,
2013-02-07 22:21:00,26.3,20.4,30.19,SW,214,0.0,0.0,78,0.00,,,0.00,Wunderground v.1.15,2013-02-08 04:21:00,
2013-02-07 22:31:00,26.1,20.2,30.19,WSW,243,0.0,0.0,78,0.00,,,0.00,Wunderground v.1.15,2013-02-08 04:31:00,
2013-02-07 22:36:00,26.1,20.2,30.19,East,95,0.0,0.0,78,0.00,,,0.00,Wunderground v.1.15,2013-02-08 04:36:00,
2013-02-07 22:45:00,26.0,20.4,30.19,East,84,0.0,0.0,79,0.00,,,0.00,Wunderground v.1.15,2013-02-08 04:45:00,
2013-02-07 22:50:00,26.0,20.4,30.19,East,86,0.0,0.0,79,0.00,,,0.00,Wunderground v.1.15,2013-02-08 04:50:00,
2013-02-07 22:55:00,26.0,20.4,30.19,East,88,0.0,0.0,79,0.00,,,0.00,Wunderground v.1.15,2013-02-08 04:55:00,
2013-02-07 23:00:00,26.0,20.4,30.20,SE,129,0.0,0.0,79,0.00,,,0.00,Wunderground v.1.15,2013-02-08 05:00:00,
2013-02-07 23:06:00,26.0,20.4,30.20,SW,226,0.0,0.0,79,0.00,,,0.00,Wunderground v.1.15,2013-02-08 05:06:00,
2013-02-07 23:15:00,25.8,20.5,30.20,SW,216,0.0,0.0,80,0.00,,,0.00,Wunderground v.1.15,2013-02-08 05:15:00,
2013-02-07 23:25:00,25.8,20.5,30.20,SW,228,0.0,0.0,80,0.00,,,0.00,Wunderground v.1.15,2013-02-08 05:25:00,
2013-02-07 23:31:00,25.8,20.5,30.20,WSW,244,0.0,0.0,80,0.00,,,0.00,Wunderground v.1.15,2013-02-08 05:31:00,
2013-02-07 23:36:00,25.7,20.4,30.20,WSW,244,0.0,0.0,80,0.00,,,0.00,Wunderground v.1.15,2013-02-08 05:36:00,
2013-02-07 23:40:00,25.7,20.4,30.20,WSW,244,0.0,0.0,80,0.00,,,0.00,Wunderground v.1.15,2013-02-08 05:40:00,
2013-02-07 23:45:00,25.7,20.4,30.20,WSW,248,0.0,0.0,80,0.00,,,0.00,Wunderground v.1.15,2013-02-08 05:45:00,
2013-02-07 23:50:00,25.7,20.4,30.20,SW,229,0.0,0.0,80,0.00,,,0.00,Wunderground v.1.15,2013-02-08 05:50:00,
2013-02-07 23:55:00,25.6,20.3,30.20,ENE,65,0.0,0.0,80,0.00,,,0.00,Wunderground v.1.15,2013-02-08 05:55:00,